Regional Weather Roundup
Issued by NWS Kansas City/Pleasant Hill, MO

Home | Current Version | Previous Version | Graphics & Text | Print | Product List | Glossary Off
Versions: 1 2 3 4 5 6 7 8 9 10 11 12 13 14 15 16 17 18 19 20 21 22 23 24 25 26 27 28

000
ASUS43 KEAX 022210
RWREAX

WEATHER ROUNDUP FOR EASTERN KANSAS AND NORTHWEST MISSOURI
NATIONAL WEATHER SERVICE KANSAS CITY/PLEASANT HILL MO
400 PM CST FRI DEC 02 2016

KSZ040-057-103>105-MOZ028-029-037-043-022300-
...KANSAS CITY METROPOLITAN AREA...

CITY           SKY/WX    TMP DP  RH WIND       PRES   REMARKS
K.C. INTL      MOCLDY    48  27  44 N3        30.27F
K.C. DOWNTOWN  CLEAR     51  27  39 CALM      30.27S
LEES SUMMIT    CLEAR     49  26  41 NE3       30.28R
OLATHE - IXD   CLEAR     48  28  46 N5        30.27S
OLATHE - OJC   CLEAR     49  25  39 N3        30.27R
LAWRENCE       CLEAR     49  29  46 CALM      30.27F

$$

MOZ001>008-011>017-020>025-030>033-038>040-044>046-053-054-022300-
...NORTHERN AND CENTRAL MISSOURI...

CITY           SKY/WX    TMP DP  RH WIND       PRES   REMARKS
ST. JOSEPH     CLEAR     45  29  53 NW7       30.28F
MOSBY          CLEAR     46  27  46 NW3       30.28S
WARRENSBURG    CLEAR     48  27  43 CALM      30.28S
WHITEMAN AFB   CLEAR     48  28  46 N5        30.27R
CLINTON        CLEAR     50  28  43 CALM      30.28S
SEDALIA        CLEAR     48  26  42 NW5       30.29R
WARSAW         NOT AVBL
CHILLICOTHE      N/A     46  28  49 VRB3      30.30R
KIRKSVILLE     CLEAR     45  29  53 CALM      30.28R

$$

MOZ041-047>049-056>058-063>065-088>090-097-022300-
...EASTERN AND SOUTHERN MISSOURI...

CITY           SKY/WX    TMP DP  RH WIND       PRES   REMARKS
ST. LOUIS INTL PTCLDY    47  28  47 NW6       30.29R
SPIRIT OF STL  PTCLDY    48  30  49 NW7       30.29R
COLUMBIA       CLEAR     48  26  42 NW8       30.28R
JEFFERSON CITY CLEAR     48  25  40 NW3       30.29R
ROLLA          CLEAR     48  28  46 N5        30.26R
OSAGE BEACH    PTCLDY    51  25  36 N3        30.28S
SPRINGFIELD    CLEAR     54  24  31 NE9       30.21F
BRANSON        CLOUDY    54  28  37 E6        30.22F
JOPLIN         MOCLDY    54  28  36 E7        30.21S
WEST PLAINS    CLEAR     52  29  41 CALM      30.26R

$$

IAZ060-094-KSZ022-034>040-054-083-096-NEZ052-066-093-022300-
...KANSAS...SOUTHEAST NEBRASKA AND IOWA...

CITY           SKY/WX    TMP DP  RH WIND       PRES   REMARKS
TOPEKA         CLEAR     50  28  42 E5        30.28R
MANHATTAN      CLEAR     49  26  41 CALM      30.27R
EMPORIA        CLEAR     50  23  34 NE9       30.25R
CHANUTE        CLEAR     55  24  30 NE10      30.23R
WICHITA        MOSUNNY   52  20  28 NE10      30.22R
OMAHA          MOCLDY    39  29  67 N9        30.30S WCI  33
LINCOLN        CLEAR     43  27  53 N7        30.30R
FALLS CITY       N/A    N/A N/A N/A MISG      30.28S
LAMONI         CLEAR     42  30  62 W7        30.28R
DES MOINES     CLOUDY    40  31  70 NW7       30.29R

$$





USA.gov is the U.S. government's official web portal to all federal, state and local government web resources and services.